| time (UTC) | temp F | wind direction | speed MPH | gust MPH | rain 1hr in | rain 24hr in | rain mn in | humidity % | barometer mb |
| 20260509033823 | 41 | 24 | 0.0 | 0.0 | 0.00 | 0.00 | 0.00 | ||
| 20260509032823 | 44 | 24 | 0.0 | 0.0 | 0.00 | 0.00 | 0.00 | ||
| 20260509031826 | 42 | 7 | 3.0 | 3.0 | 0.00 | 0.00 | 0.00 | ||
| 20260509030826 | 43 | 350 | 1.0 | 1.0 | 0.00 | 0.00 | 0.00 | ||
| 20260509030328 | 42 | 338 | 4.0 | 4.0 | 0.00 | 0.00 | 0.00 | ||
| 20260509025829 | 42 | 0 | 6.0 | 5.0 | 0.00 | 0.00 | 0.00 | ||
| 20260509024832 | 42 | 359 | 5.0 | 6.0 | 0.00 | 0.00 | 0.00 | ||
| 20260509023832 | 41 | 359 | 4.0 | 4.0 | 0.00 | 0.00 | 0.00 | ||
| 20260509023334 | 42 | 4 | 2.0 | 3.0 | 0.00 | 0.00 | 0.00 | ||
| 20260509022337 | 42 | 6 | 3.0 | 4.0 | 0.00 | 0.00 | 0.00 | ||
| 20260509021337 | 42 | 8 | 4.0 | 4.0 | 0.00 | 0.00 | 0.00 | ||
| 20260509020838 | 43 | 3 | 3.0 | 3.0 | 0.00 | 0.00 | 0.00 | ||
| 20260509015841 | 42 | 350 | 3.0 | 3.0 | 0.00 | 0.00 | 0.00 | ||
| 20260509014343 | 43 | 345 | 2.0 | 2.0 | 0.00 | 0.00 | 0.00 | ||
| 20260509011847 | 41 | 3 | 5.0 | 4.0 | 0.00 | 0.00 | 0.00 | ||
| 20260509011349 | 43 | 15 | 5.0 | 5.0 | 0.00 | 0.00 | 0.00 | ||
| 20260509010349 | 44 | 28 | 3.0 | 3.0 | 0.00 | 0.00 | 0.00 | ||
| 20260509005850 | 41 | 7 | 4.0 | 4.0 | 0.00 | 0.00 | 0.00 | ||
| 20260509005352 | 42 | 1 | 2.0 | 2.0 | 0.00 | 0.00 | 0.00 | ||
| 20260509004851 | 42 | 345 | 3.0 | 3.0 | 0.00 | 0.00 | 0.00 | ||
| 20260509004353 | 42 | 6 | 3.0 | 3.0 | 0.00 | 0.00 | 0.00 | ||
| 20260509003851 | 45 | 34 | 2.0 | 2.0 | 0.00 | 0.00 | 0.00 | ||
| 20260509003352 | 45 | 37 | 3.0 | 3.0 | 0.00 | 0.00 | 0.00 | ||
| 20260509002853 | 44 | 359 | 2.0 | 1.0 | 0.00 | 0.00 | 0.00 | ||
| 20260509002355 | 45 | 31 | 2.0 | 2.0 | 0.00 | 0.00 | 0.00 | ||
| 20260509001354 | 45 | 330 | 0.0 | 0.0 | 0.00 | 0.00 | 0.00 | ||
| 20260509000855 | 46 | 330 | 0.0 | 0.0 | 0.00 | 0.00 | 0.00 | ||
| 20260508235357 | 44 | 349 | 6.0 | 6.0 | 0.00 | 0.00 | 0.00 | ||
| 20260508234355 | 44 | 332 | 2.0 | 2.0 | 0.00 | 0.00 | 0.00 | ||
| 20260508233857 | 45 | 39 | 1.0 | 1.0 | 0.00 | 0.00 | 0.00 | ||
| 20260508233358 | 44 | 20 | 4.0 | 3.0 | 0.00 | 0.00 | 0.00 | ||
| 20260508232859 | 43 | 27 | 3.0 | 5.0 | 0.00 | 0.00 | 0.00 | ||
| 20260508232357 | 43 | 35 | 3.0 | 3.0 | 0.00 | 0.00 | 0.00 | ||
| 20260508225855 | 44 | 4 | 4.0 | 4.0 | 0.00 | 0.00 | 0.00 | ||
| 20260508222901 | 44 | 353 | 5.0 | 5.0 | 0.00 | 0.00 | 0.00 | ||
| 20260508221405 | 46 | 8 | 3.0 | 3.0 | 0.00 | 0.00 | 0.00 | ||
| 20260508220902 | 46 | 8 | 4.0 | 4.0 | 0.00 | 0.00 | 0.00 | ||
| 20260508215407 | 47 | 359 | 0.0 | 0.0 | 0.00 | 0.00 | 0.00 | ||
| 20260508212413 | 47 | 34 | 2.0 | 2.0 | 0.00 | 0.00 | 0.00 | ||
| 20260508211909 | 47 | 10 | 4.0 | 5.0 | 0.00 | 0.00 | 0.00 | ||
| 20260508211411 | 47 | 359 | 3.0 | 3.0 | 0.00 | 0.00 | 0.00 | ||
| 20260508210912 | 48 | 346 | 2.0 | 3.0 | 0.00 | 0.00 | 0.00 | ||
| 20260508210414 | 50 | 23 | 1.0 | 1.0 | 0.00 | 0.00 | 0.00 | ||
| 20260508205915 | 48 | 18 | 3.0 | 2.0 | 0.00 | 0.00 | 0.00 | ||
| 20260508205414 | 48 | 31 | 4.0 | 3.0 | 0.00 | 0.00 | 0.00 | ||
| 20260508203918 | 49 | 15 | 2.0 | 3.0 | 0.00 | 0.00 | 0.00 | ||
| 20260508202917 | 49 | 41 | 2.0 | 2.0 | 0.00 | 0.00 | 0.00 | ||
| 20260508201919 | 48 | 28 | 3.0 | 3.0 | 0.00 | 0.00 | 0.00 | ||
| 20260508201421 | 48 | 350 | 4.0 | 4.0 | 0.00 | 0.00 | 0.00 | ||
| 20260508200922 | 48 | 18 | 5.0 | 4.0 | 0.00 | 0.00 | 0.00 | ||
| 20260508194426 | 50 | 352 | 6.0 | 6.0 | 0.00 | 0.00 | 0.00 | ||
| 20260508192927 | 51 | 357 | 6.0 | 6.0 | 0.00 | 0.00 | 0.00 | ||
| 20260508191929 | 51 | 3 | 6.0 | 6.0 | 0.00 | 0.00 | 0.00 | ||
| 20260508191428 | 51 | 0 | 6.0 | 6.0 | 0.00 | 0.00 | 0.00 | ||
| 20260508190430 | 52 | 339 | 6.0 | 6.0 | 0.00 | 0.00 | 0.00 | ||
| 20260508183435 | 53 | 15 | 6.0 | 5.0 | 0.00 | 0.00 | 0.00 | ||
| 20260508182936 | 55 | 3 | 6.0 | 7.0 | 0.00 | 0.00 | 0.00 | ||
| 20260508181936 | 56 | 7 | 7.0 | 8.0 | 0.00 | 0.00 | 0.00 | ||
| 20260508180938 | 57 | 6 | 7.0 | 7.0 | 0.00 | 0.00 | 0.00 | ||
| 20260508174941 | 64 | 1 | 5.0 | 6.0 | 0.00 | 0.00 | 0.00 | ||
| 20260508173943 | 65 | 4 | 9.0 | 8.0 | 0.00 | 0.00 | 0.00 | ||
| 20260508172943 | 66 | 10 | 7.0 | 8.0 | 0.00 | 0.00 | 0.00 | ||
| 20260508164447 | 60 | 359 | 6.0 | 7.0 | 0.00 | 0.00 | 0.00 | ||
| 20260508163947 | 65 | 350 | 4.0 | 4.0 | 0.00 | 0.00 | 0.00 | ||
| 20260508162450 | 61 | 354 | 7.0 | 5.0 | 0.00 | 0.00 | 0.00 | ||
| 20260508161449 | 67 | 4 | 5.0 | 5.0 | 0.00 | 0.00 | 0.00 | ||
| 20260508160950 | 65 | 316 | 5.0 | 3.0 | 0.00 | 0.00 | 0.00 | ||
| 20260508155450 | 66 | 357 | 6.0 | 10.0 | 0.00 | 0.00 | 0.00 | ||
| 20260508154951 | 66 | 3 | 5.0 | 4.0 | 0.00 | 0.00 | 0.00 | ||
| 20260508154451 | 68 | 340 | 3.0 | 1.0 | 0.00 | 0.00 | 0.00 | ||
| 20260508153952 | 66 | 315 | 5.0 | 3.0 | 0.00 | 0.00 | 0.00 | ||
| 20260508152950 | 63 | 343 | 7.0 | 8.0 | 0.00 | 0.00 | 0.00 | ||
| 20260508151952 | 67 | 326 | 5.0 | 5.0 | 0.00 | 0.00 | 0.00 | ||
| 20260508150451 | 68 | 63 | 2.0 | 3.0 | 0.00 | 0.00 | 0.00 | ||
| 20260508145952 | 64 | 13 | 6.0 | 5.0 | 0.00 | 0.00 | 0.00 | ||
| 20260508144954 | 65 | 336 | 8.0 | 5.0 | 0.00 | 0.00 | 0.00 | ||
| 20260508144455 | 67 | 46 | 4.0 | 4.0 | 0.00 | 0.00 | 0.00 | ||
| 20260508143454 | 68 | 25 | 2.0 | 3.0 | 0.00 | 0.00 | 0.00 | ||
| 20260508141955 | 67 | 307 | 2.0 | 3.0 | 0.00 | 0.00 | 0.00 | ||
| 20260508141452 | 67 | 338 | 5.0 | 6.0 | 0.00 | 0.00 | 0.00 | ||
| 20260508140454 | 67 | 305 | 6.0 | 3.0 | 0.00 | 0.00 | 0.00 | ||
| 20260508133457 | 63 | 352 | 6.0 | 7.0 | 0.00 | 0.00 | 0.00 | ||
| 20260508132958 | 67 | 343 | 5.0 | 8.0 | 0.00 | 0.00 | 0.00 | ||
| 20260508131957 | 65 | 346 | 9.0 | 11.0 | 0.00 | 0.00 | 0.00 | ||
| 20260508131457 | 65 | 318 | 10.0 | 7.0 | 0.00 | 0.00 | 0.00 | ||
| 20260508130459 | 66 | 259 | 5.0 | 5.0 | 0.00 | 0.00 | 0.00 | ||
| 20260508125459 | 66 | 304 | 2.0 | 0.0 | 0.00 | 0.00 | 0.00 | ||
| 20260508125000 | 67 | 32 | 3.0 | 3.0 | 0.00 | 0.00 | 0.00 | ||
| 20260508124501 | 64 | 259 | 5.0 | 5.0 | 0.00 | 0.00 | 0.00 | ||
| 20260508124002 | 65 | 287 | 1.0 | 0.0 | 0.00 | 0.00 | 0.00 | ||
| 20260508123500 | 67 | 218 | 3.0 | 3.0 | 0.00 | 0.00 | 0.00 | ||
| 20260508121002 | 61 | 274 | 4.0 | 2.0 | 0.00 | 0.00 | 0.00 | ||
| 20260508115506 | 63 | 307 | 4.0 | 7.0 | 0.00 | 0.00 | 0.00 | ||
| 20260508114007 | 68 | 352 | 3.0 | 5.0 | 0.00 | 0.00 | 0.00 | ||
| 20260508112511 | 68 | 77 | 6.0 | 4.0 | 0.00 | 0.00 | 0.00 | ||
| 20260508112010 | 67 | 55 | 2.0 | 9.0 | 0.00 | 0.00 | 0.00 | ||
| 20260508111012 | 66 | 353 | 4.0 | 2.0 | 0.00 | 0.00 | 0.00 | ||
| 20260508110513 | 65 | 72 | 3.0 | 2.0 | 0.00 | 0.00 | 0.00 | ||
| 20260508110015 | 63 | 68 | 6.0 | 6.0 | 0.00 | 0.00 | 0.00 | ||
| 20260508104015 | 63 | 14 | 3.0 | 8.0 | 0.00 | 0.00 | 0.00 | ||
| 20260508103516 | 61 | 277 | 3.0 | 3.0 | 0.00 | 0.00 | 0.00 | ||
| 20260508102516 | 61 | 41 | 3.0 | 2.0 | 0.00 | 0.00 | 0.00 | ||
| 20260508101519 | 62 | 63 | 5.0 | 6.0 | 0.00 | 0.00 | 0.00 | ||
| 20260508101020 | 65 | 24 | 5.0 | 6.0 | 0.00 | 0.00 | 0.00 | ||
| 20260508100020 | 64 | 8 | 3.0 | 1.0 | 0.00 | 0.00 | 0.00 | ||
| 20260508095522 | 60 | 233 | 2.0 | 2.0 | 0.00 | 0.00 | 0.00 | ||
| 20260508095023 | 62 | 323 | 2.0 | 1.0 | 0.00 | 0.00 | 0.00 | ||
| 20260508093025 | 57 | 308 | 2.0 | 1.0 | 0.00 | 0.00 | 0.00 | ||
| 20260508090030 | 56 | 353 | 4.0 | 5.0 | 0.00 | 0.00 | 0.00 | ||
| 20260508085531 | 54 | 329 | 6.0 | 7.0 | 0.00 | 0.00 | 0.00 | ||
| 20260508085029 | 58 | 343 | 4.0 | 9.0 | 0.00 | 0.00 | 0.00 | ||
| 20260508084530 | 60 | 62 | 8.0 | 8.0 | 0.00 | 0.00 | 0.00 | ||
| 20260508084031 | 56 | 4 | 5.0 | 3.0 | 0.00 | 0.00 | 0.00 | ||
| 20260508083533 | 57 | 30 | 3.0 | 5.0 | 0.00 | 0.00 | 0.00 | ||
| 20260508083034 | 56 | 4 | 4.0 | 4.0 | 0.00 | 0.00 | 0.00 | ||
| 20260508081535 | 53 | 347 | 4.0 | 5.0 | 0.00 | 0.00 | 0.00 | ||
| 20260508080538 | 56 | 301 | 0.0 | 0.0 | 0.00 | 0.00 | 0.00 | ||
| 20260508074541 | 52 | 111 | 1.0 | 2.0 | 0.00 | 0.00 | 0.00 | ||
| 20260508073540 | 52 | 172 | 0.0 | 0.0 | 0.00 | 0.00 | 0.00 | ||
| 20260508071545 | 50 | 301 | 1.0 | 0.0 | 0.00 | 0.00 | 0.00 | ||
| 20260508070046 | 49 | 352 | 4.0 | 4.0 | 0.00 | 0.00 | 0.00 | ||
| 20260508065548 | 51 | 45 | 3.0 | 2.0 | 0.00 | 0.00 | 0.00 | ||
| 20260508065049 | 51 | 17 | 3.0 | 3.0 | 0.00 | 0.00 | 0.00 | ||
| 20260508064547 | 52 | 17 | 3.0 | 3.0 | 0.00 | 0.00 | 0.00 | ||
| 20260508064048 | 51 | 77 | 3.0 | 3.0 | 0.00 | 0.00 | 0.00 | ||
| 20260508062048 | 50 | 79 | 5.0 | 6.0 | 0.00 | 0.00 | 0.00 | ||
| 20260508061549 | 52 | 60 | 4.0 | 5.0 | 0.00 | 0.00 | 0.00 | ||
| 20260508060053 | 49 | 48 | 3.0 | 4.0 | 0.00 | 0.00 | 0.00 | ||
| 20260508055551 | 49 | 31 | 4.0 | 5.0 | 0.00 | 0.00 | 0.00 | ||
| 20260508054055 | 47 | 349 | 6.0 | 7.0 | 0.00 | 0.00 | 0.00 | ||
| 20260508053557 | 47 | 6 | 3.0 | 2.0 | 0.00 | 0.00 | 0.00 | ||
| 20260508053054 | 47 | 6 | 3.0 | 2.0 | 0.00 | 0.00 | 0.00 | ||
| 20260508051557 | 47 | 24 | 0.0 | 0.0 | 0.00 | 0.00 | 0.00 | ||
| 20260508051059 | 48 | 24 | 0.0 | 0.0 | 0.00 | 0.00 | 0.00 | ||
| 20260508050556 | 48 | 24 | 0.0 | 0.0 | 0.00 | 0.00 | 0.00 | ||
| 20260508050057 | 47 | 79 | 0.0 | 1.0 | 0.00 | 0.00 | 0.00 | ||
| 20260508045559 | 47 | 41 | 5.0 | 4.0 | 0.00 | 0.00 | 0.00 | ||
| 20260508044600 | 46 | 1 | 0.0 | 0.0 | 0.00 | 0.00 | 0.00 | ||
| 20260508044058 | 46 | 353 | 0.0 | 0.0 | 0.00 | 0.00 | 0.00 | ||
| 20260508043559 | 46 | 4 | 4.0 | 3.0 | 0.00 | 0.00 | 0.00 | ||
| 20260508043101 | 46 | 330 | 2.0 | 3.0 | 0.00 | 0.00 | 0.00 | ||
| 20260508042602 | 45 | 323 | 5.0 | 4.0 | 0.00 | 0.00 | 0.00 | ||
| 20260508041601 | 46 | 315 | 1.0 | 3.0 | 0.00 | 0.00 | 0.00 | ||
| 20260508041102 | 45 | 309 | 3.0 | 2.0 | 0.00 | 0.00 | 0.00 | ||
| 20260508040105 | 45 | 338 | 4.0 | 3.0 | 0.00 | 0.00 | 0.00 |